SCP
0 0 0 0 0 0 0 0 0 0 0 0 0 0 1 2 5 9 11 11 11 11 10 11 10 11 11 11 9 8 7 7 7 6 6 5 4 4 4 5 5 6 6 6
0 0 0 0 0 0 0 0 0 0 0 0 0 0 1 2 5 8 10 12 12 11 10 11 12 13 13 12 10 9 8 8 8 7 6 6 5 5 5 6 6 6 6 6
0 0 0 0 0 0 0 0 0 0 0 0 0 0 1 2 4 7 9 11 12 11 10 10 11 12 13 12 10 10 10 9 8 8 7 6 6 5 6 6 7 7 6 6
0 0 0 0 0 0 0 0 0 0 0 0 0 0 1 2 4 5 7 9 11 12 12 11 11 10 10 10 10 10 10 9 8 7 7 6 6 5 5 6 6 6 6 5
0 0 0 0 0 0 0 0 0 0 0 0 0 0 1 2 4 5 7 9 11 12 12 12 11 9 8 8 8 8 8 8 7 6 6 5 5 5 5 5 5 5 5 5
0 0 0 0 0 0 0 0 0 0 0 0 0 0 1 3 5 7 8 9 10 10 9 9 8 7 6 5 5 5 6 6 5 4 4 4 4 4 4 5 5 4 4 4
0 0 0 0 0 0 0 0 0 0 0 0 0 1 2 4 7 8 9 8 8 6 5 5 5 5 4 4 4 4 4 4 4 3 3 4 4 4 4 4 4 4 3 3
0 0 0 0 0 0 0 0 0 0 0 0 0 1 3 5 7 8 8 7 6 4 3 3 3 3 3 3 4 4 4 4 3 3 4 4 4 4 4 4 3 2 2 2
0 0 0 0 0 0 0 0 0 1 1 0 0 1 3 5 5 5 5 5 4 3 3 3 3 3 3 3 4 4 3 3 3 3 3 4 3 4 4 3 2 2 1 1
0 0 0 0 0 0 0 0 1 1 1 0 0 1 2 4 4 4 3 3 2 2 2 2 2 3 3 3 3 3 3 3 3 3 2 2 2 2 2 2 1 1 1 0
0 0 0 0 0 0 0 1 1 1 1 1 1 1 2 3 3 3 2 2 2 1 1 1 1 1 2 2 2 2 2 2 2 2 2 1 1 1 1 1 1 0 0 0
0 0 0 0 0 0 0 0 0 0 0 0 1 1 2 2 2 2 1 1 1 1 0 0 1 1 1 1 1 1 1 1 1 1 1 1 1 1 1 1 1 0 0 0
0 0 0 0 0 0 0 0 0 0 0 0 0 1 1 1 2 2 1 1 1 0 0 0 0 0 0 1 1 1 1 1 1 1 1 1 1 1 1 1 0 0 0 0
0 0 0 0 0 0 0 0 0 0 0 0 0 0 1 1 1 1 1 1 1 0 0 0 0 0 0 0 0 0 0 0 0 1 1 1 1 1 1 0 0 0 0 0
0 0 0 0 0 0 0 0 0 0 0 0 0 0 0 1 1 1 1 1 0 0 0 0 0 0 0 0 0 0 0 0 0 1 1 1 1 0 0 0 0 0 0 0
0 0 0 0 0 0 0 0 0 0 0 0 0 0 1 1 1 1 1 0 0 0 0 0 0 0 0 0 0 0 0 0 0 0 0 0 0 0 0 0 0 0 0 0
0 0 0 0 0 0 0 0 0 0 0 0 0 1 1 1 1 1 0 0 0 0 0 0 0 0 0 0 0 0 0 0 0 0 0 0 0 0 0 0 0 0 0 0
0 0 0 0 0 0 0 0 0 0 0 0 0 0 0 0 0 0 0 0 0 0 0 0 0 0 0 0 0 0 0 0 0 0 0 0 0 0 0 0 0 0 0 0
0 0 0 0 0 0 0 0 0 0 0 0 0 0 0 0 0 0 0 0 0 0 0 0 0 0 0 0 0 0 0 0 0 0 0 0 0 0 0 0 0 0 0 0
0 0 0 0 0 0 0 0 0 0 0 0 0 0 0 0 0 0 0 0 0 0 0 0 0 0 0 0 0 0 0 0 0 0 0 0 0 0 0 0 0 0 0 0
0 0 0 0 0 0 0 0 0 0 0 0 0 0 0 0 0 0 0 0 0 0 0 0 0 0 0 0 0 0 0 0 0 0 0 0 0 0 0 0 0 0 0 0
0 0 0 0 0 0 0 0 0 0 0 0 0 0 0 0 0 0 0 0 0 0 0 0 0 0 0 0 0 0 0 0 0 0 0 0 0 0 0 0 0 0 0 0
0 0 0 0 0 0 0 0 0 0 0 0 0 0 0 0 0 0 0 0 0 0 0 0 0 0 0 0 0 0 0 0 0 0 0 0 0 0 0 0 0 0 0 0
0 0 0 0 0 0 0 0 0 0 0 0 0 0 0 0 0 0 0 0 0 0 0 0 0 0 0 0 0 0 0 0 0 0 0 0 0 0 0 0 0 0 0 0
0 0 0 0 0 0 0 0 0 0 0 0 0 0 0 0 0 0 0 0 0 0 0 0 0 0 0 0 0 0 0 0 0 0 0 0 0 0 0 0 0 0 0 0
0 0 0 0 0 0 0 0 0 0 0 0 0 0 0 0 0 0 0 0 0 0 0 0 0 0 0 0 0 0 0 0 0 0 0 0 0 0 0 0 0 0 0 0
Wind_Speed
9 9 10 11 12 14 16 15 16 13 12 13 13 12 10 8 8 8 8 7 6 5 8 7 6 6 9 8 7 6 6 5 3 3 4 4 4 4 4 4 5 5 5 6
7 10 12 11 9 10 12 13 15 16 8 4 6 10 11 9 7 6 7 6 7 5 6 5 4 3 5 6 5 4 3 3 3 1 1 2 3 3 4 3 3 5 6 6
10 6 7 5 8 11 12 14 15 16 15 9 8 14 16 12 9 11 8 6 4 5 7 7 4 4 6 6 5 4 3 3 3 2 1 2 3 3 4 5 4 5 7 8
9 8 5 9 11 12 12 10 12 13 13 12 12 13 16 16 14 13 12 10 7 6 7 7 6 5 5 5 6 5 5 4 4 3 3 4 4 5 6 5 5 6 7 8
7 7 8 11 11 9 10 10 11 12 13 15 15 15 14 15 15 15 14 13 11 8 8 7 6 5 4 3 2 2 2 2 2 2 3 3 5 5 6 7 8 7 7 8
12 8 10 11 8 7 9 11 13 13 12 18 18 19 18 15 11 14 12 12 11 9 8 7 6 4 2 1 0 1 2 1 1 1 3 3 5 6 8 8 8 8 7 7
9 11 13 12 12 10 11 10 10 13 14 18 17 19 11 5 8 19 19 14 12 10 8 7 5 3 2 0 1 2 2 2 2 2 2 3 4 6 7 7 7 7 6 5
9 9 6 9 12 10 10 11 10 10 13 14 10 7 6 11 13 14 16 15 13 11 8 7 5 4 3 2 1 1 0 1 2 2 3 3 4 4 4 5 5 5 4 5
8 6 3 6 8 8 11 12 14 13 15 16 14 11 9 8 9 9 13 13 11 9 9 8 7 5 4 3 3 3 4 4 4 4 3 3 4 4 5 5 5 4 4 4
9 13 13 9 9 12 11 13 9 7 8 13 16 19 8 12 9 8 9 11 10 8 8 8 7 6 4 3 2 3 4 3 3 2 2 3 3 3 4 4 5 5 6 5
8 11 14 11 8 10 6 6 8 8 8 9 12 6 5 10 12 11 8 8 8 8 7 6 6 6 5 4 3 2 2 2 2 2 2 2 2 3 3 3 3 3 3 3
9 9 10 12 10 2 2 2 4 1 6 8 9 8 2 5 12 14 13 11 8 6 6 5 5 4 3 2 1 1 1 1 1 1 1 2 3 3 3 4 3 2 2 1
7 6 9 11 4 1 2 4 6 6 4 5 7 10 7 7 2 8 9 9 8 6 5 5 4 3 2 2 2 2 2 2 2 2 1 2 3 4 4 4 3 4 4 3
4 9 12 14 14 15 13 12 9 8 7 9 12 15 13 8 6 3 6 7 7 6 4 3 3 2 1 1 2 3 3 3 2 2 2 3 3 3 3 3 2 3 3 3
5 8 11 14 16 17 17 16 13 12 11 11 12 14 14 10 9 8 8 7 7 6 5 3 2 1 1 1 2 2 3 3 3 2 2 3 2 2 2 2 2 3 3 4
4 8 12 15 16 16 15 14 13 12 10 11 12 11 6 3 5 8 8 7 6 5 3 2 1 1 2 3 3 2 2 2 2 3 3 4 3 2 2 2 3 3 3 3
8 9 13 14 15 14 12 8 7 8 9 10 9 6 2 1 3 5 5 5 5 3 2 1 2 2 3 4 3 3 1 1 1 3 4 4 4 4 4 4 4 4 4 4
6 7 8 13 13 12 5 3 5 8 8 7 5 1 0 1 3 4 4 5 4 3 3 2 0 2 3 4 3 3 3 1 2 3 4 4 4 4 4 5 5 5 5 4
6 3 7 9 10 11 7 1 2 7 9 5 2 1 2 3 4 6 7 7 6 5 3 2 2 3 3 3 3 3 2 1 2 4 4 4 3 3 3 4 5 5 5 5
9 7 8 11 13 13 6 4 2 7 5 4 2 2 1 3 4 3 10 9 7 4 3 3 3 2 2 1 0 0 2 3 4 4 4 4 3 3 2 2 2 2 3 4
10 11 13 13 13 9 6 4 4 7 2 1 5 5 3 3 2 6 9 7 6 5 5 5 4 2 1 1 2 3 5 5 5 4 4 4 4 2 2 1 1 1 1 2
8 9 10 11 11 4 5 4 6 3 1 5 6 6 2 5 7 8 8 7 6 5 6 5 3 2 2 2 3 4 5 4 4 3 3 4 4 4 4 2 2 1 1 1
7 7 6 6 7 6 6 5 4 5 5 6 7 4 3 6 7 7 8 6 5 4 3 2 3 4 4 3 3 5 4 4 3 3 3 2 3 4 4 4 3 2 2 2
10 7 8 8 8 8 8 7 6 7 7 6 7 5 5 6 7 7 7 6 5 4 3 3 3 5 5 5 5 6 5 4 3 3 2 2 2 3 4 3 3 3 2 3
14 13 11 11 10 11 12 12 10 8 7 7 8 7 6 7 7 7 7 6 5 4 4 4 4 4 6 6 6 6 6 4 3 3 3 3 3 3 2 3 4 4 5 4
13 14 13 12 10 10 8 7 8 8 9 8 9 8 8 8 8 8 8 7 6 5 5 5 5 6 6 7 6 6 5 4 3 3 3 3 4 4 4 5 4 5 4 3
Wind_Direction
207 238 247 241 241 255 277 298 301 283 253 217 212 235 238 191 184 168 151 145 138 149 141 157 174 172 164 158 155 167 189 197 197 213 219 223 235 235 238 240 244 246 256 260
228 237 254 281 319 312 297 289 289 296 293 227 229 249 256 238 177 123 110 116 125 151 143 123 120 114 121 123 133 154 189 192 188 234 282 294 299 295 290 281 263 248 251 253
267 302 338 295 278 268 267 266 266 275 285 252 236 254 255 242 181 146 152 141 128 152 158 139 112 74 77 82 82 89 80 71 67 16 323 297 288 276 274 277 271 254 250 247
276 282 286 279 262 254 260 278 283 276 280 274 247 248 238 229 213 177 167 160 146 113 116 117 110 88 76 73 73 71 73 67 54 9 353 342 317 299 301 301 291 286 273 259
274 292 271 258 268 281 286 317 317 298 286 280 269 265 261 250 217 183 168 157 142 120 104 98 98 99 88 82 88 102 90 74 54 9 340 325 306 310 315 314 307 298 284 267
275 264 263 270 280 285 289 293 288 274 268 262 259 262 263 264 231 161 129 118 120 115 103 93 87 87 89 92 223 203 173 195 237 295 317 313 314 316 312 311 308 308 301 287
289 272 255 259 261 257 262 264 269 261 247 251 253 255 276 340 98 130 129 128 122 113 110 106 99 91 84 54 309 282 253 246 256 265 295 330 333 319 314 322 326 329 325 324
264 276 283 270 265 275 280 273 262 271 276 283 294 292 45 58 80 103 114 119 120 120 119 115 106 90 66 44 350 303 50 50 41 45 39 15 353 340 343 344 340 351 1 6
284 289 265 252 263 277 278 269 269 268 271 275 270 249 152 133 115 117 120 118 118 119 121 119 110 95 76 57 45 60 73 69 60 56 51 47 24 13 6 5 2 2 11 16
284 290 290 270 250 253 270 295 286 265 263 256 253 251 219 162 145 129 130 130 132 136 135 131 125 122 119 116 99 85 90 90 76 75 35 63 52 44 29 23 21 16 18 29
295 293 293 289 269 278 324 339 347 329 297 289 276 274 98 146 143 140 147 156 151 146 139 137 133 133 143 142 129 105 91 91 87 78 85 82 85 88 80 56 40 31 20 25
307 303 299 296 305 284 272 71 94 85 315 318 306 299 41 149 160 162 165 164 152 147 139 133 119 116 116 115 110 121 89 32 10 25 57 97 98 90 79 65 42 33 16 360
338 313 294 285 261 51 279 241 209 185 203 262 279 282 330 331 214 152 154 152 148 150 133 116 103 90 53 18 357 343 15 348 345 353 7 68 87 85 73 62 39 21 5 352
289 274 280 291 300 305 294 281 258 232 238 260 260 276 285 279 270 177 154 154 158 162 155 130 117 123 85 316 329 328 344 343 346 4 21 46 56 69 81 78 66 39 10 10
244 278 290 294 298 297 297 299 295 284 282 274 282 285 291 279 242 195 173 176 178 175 178 161 141 93 321 304 319 327 347 2 8 33 39 36 37 64 72 64 63 52 29 38
291 292 293 289 291 296 296 297 303 303 308 300 297 301 302 275 168 168 176 190 195 191 195 156 92 23 326 317 311 333 2 7 29 48 43 38 28 42 49 54 57 50 49 38
291 303 301 296 300 300 294 308 309 310 314 313 315 321 314 134 159 176 186 199 198 190 179 121 47 11 335 301 291 287 248 165 72 61 53 40 37 48 28 33 47 35 33 34
253 291 288 284 290 288 299 336 303 300 302 311 318 336 135 125 154 162 172 180 175 176 150 127 1 326 299 278 267 256 231 179 109 77 63 49 37 46 44 46 42 31 29 30
180 254 287 287 291 297 305 287 303 312 308 328 340 12 139 150 180 200 189 184 186 184 173 187 249 279 275 266 269 256 223 154 111 93 79 62 50 54 61 59 46 31 23 19
169 201 248 272 288 296 307 110 359 298 281 49 27 321 245 222 249 233 175 175 172 171 188 231 252 256 244 252 313 161 108 105 97 89 81 67 56 64 86 83 63 38 23 15
211 221 238 262 279 298 77 85 296 292 29 35 311 305 259 226 119 114 142 157 164 185 206 229 241 218 176 130 120 105 95 95 92 95 90 71 45 51 98 125 134 99 25 30
263 274 277 279 274 297 62 319 325 5 344 285 294 292 222 150 145 154 159 161 176 199 213 217 203 158 147 135 122 108 97 94 94 100 95 77 47 38 67 96 112 108 82 101
271 263 278 293 313 333 291 293 296 281 267 278 283 273 192 182 179 172 159 167 187 204 222 211 184 160 155 151 136 122 114 116 119 123 112 83 64 56 59 73 89 93 87 93
301 289 257 258 269 288 296 287 250 244 246 257 264 242 203 200 189 176 170 176 189 204 201 202 197 171 166 163 145 131 132 133 135 136 134 123 94 76 63 52 65 74 77 93
297 302 294 281 272 267 266 267 259 244 233 237 249 233 209 203 195 180 179 184 186 187 179 186 189 178 171 165 150 145 146 149 147 148 152 147 136 119 108 86 58 59 60 53
270 276 279 283 291 283 283 289 271 236 222 228 243 235 211 203 199 189 185 175 175 181 179 182 176 171 164 164 163 158 160 165 171 181 185 175 165 158 155 145 131 58 72 83